Jacksonville Craig, FL

4:29 PM EDT on April 28, 2017 (GMT -0400)
Craig Municipal

Weather History for KCRG - October, 2014

Change the Weather History Date:

Thursday, October 30, 2014

  Actual Average Record
Temperature  
Mean Temperature 70 °F -  
Max Temperature 81 °F 75 °F 84 °F (2004)
Min Temperature 60 °F 57 °F 44 °F (2008)
Cooling Degree Days 5    
Growing Degree Days 20 (Base 50)    
Moisture  
Dew Point 64 °F    
Average Humidity 84    
Maximum Humidity 94    
Minimum Humidity 58    
Precipitation  
Precipitation 0.09 in - - ()
Sea Level Pressure  
Sea Level Pressure 29.93 in    
Wind  
Wind Speed 3 mph (NNE)    
Max Wind Speed 13 mph    
Max Gust Speed -    
Visibility 9 miles    
Events Fog , Rain , Thunderstorm    
Averages and records for this station are not official NWS values.
T = Trace of Precipitation, MM = Missing Value Source: NWS Daily Summary

Daily Weather History Graph

Daily Weather History Graph

Search for Another Location

Airport or City:

Trip Planner

Search our weather history database for the weather conditions in past years. The results will help you decide how hot, cold, wet, or windy it might be!

Date:

Astronomy

Oct. 30, 2014 Rise Set
Actual Time 7:38 AM EDT 6:40 PM EDT
Civil Twilight 7:14 AM EDT 7:04 PM EDT
Nautical Twilight 6:45 AM EDT 7:33 PM EDT
Astronomical Twilight 6:17 AM EDT 8:01 PM EDT
Moon 1:39 PM EDT (10/30) No Moon Set
Length of Visible Light 11h 50m
Length of Day
11h 01m
Waxing Crescent, 45% of the Moon is Illuminated
Oct 30
Waxing Crescent
Oct 30
First Quarter
Nov 6
Full
Nov 14
Last Quarter
Nov 22
New

Hourly Weather History & Observations

Time (EDT) Temp. Heat Index Dew Point Humidity Pressure Visibility Wind Dir Wind Speed Gust Speed Precip Events Conditions
12:53 AM 70.0 °F - 63.0 °F 78% 29.99 in 10.0 mi SW 3.5 mph - N/A   Clear
1:53 AM 66.9 °F - 62.1 °F 84% 29.99 in 10.0 mi Calm Calm - N/A   Clear
2:53 AM 64.9 °F - 61.0 °F 87% 29.98 in 10.0 mi Calm Calm - N/A   Clear
3:53 AM 64.9 °F - 61.0 °F 87% 29.96 in 10.0 mi Calm Calm - N/A   Clear
4:53 AM 63.0 °F - 60.1 °F 90% 29.96 in 10.0 mi Calm Calm - N/A   Clear
5:53 AM 63.0 °F - 61.0 °F 93% 29.96 in 10.0 mi Calm Calm - N/A   Clear
6:27 AM 63.0 °F - 60.1 °F 90% 29.96 in 10.0 mi Calm Calm - N/A   Mostly Cloudy
6:48 AM 60.8 °F - 59.0 °F 94% 29.97 in 10.0 mi Calm Calm - N/A   Scattered Clouds
6:53 AM 62.1 °F - 59.0 °F 90% 29.97 in 10.0 mi Calm Calm - N/A   Partly Cloudy
7:53 AM 63.0 °F - 61.0 °F 93% 29.98 in 8.0 mi Calm Calm - N/A   Clear
8:53 AM 68.0 °F - 64.0 °F 87% 30.00 in 10.0 mi NNW 5.8 mph - N/A   Clear
9:53 AM 70.0 °F - 63.0 °F 78% 29.99 in 10.0 mi NNW 8.1 mph - N/A   Clear
10:53 AM 73.9 °F - 64.0 °F 71% 29.99 in 10.0 mi NE 3.5 mph - N/A   Clear
11:53 AM 75.9 °F - 64.0 °F 67% 29.99 in 10.0 mi Variable 3.5 mph - N/A   Partly Cloudy
12:53 PM 79.0 °F - 64.9 °F 62% 29.96 in 10.0 mi Variable 5.8 mph - N/A   Partly Cloudy
1:16 PM 77.0 °F - 64.0 °F 64% 29.95 in 10.0 mi NNW 5.8 mph - N/A   Mostly Cloudy
1:48 PM 80.6 °F 82.3 °F 64.4 °F 58% 29.93 in 10.0 mi Calm Calm - N/A   Scattered Clouds
1:53 PM 80.1 °F 81.7 °F 64.0 °F 58% 29.93 in 10.0 mi NNE 4.6 mph - N/A   Scattered Clouds
2:53 PM 79.0 °F - 63.0 °F 58% 29.91 in 10.0 mi North 5.8 mph - N/A   Mostly Cloudy
3:53 PM 75.9 °F - 64.9 °F 69% 29.89 in 10.0 mi ENE 5.8 mph - N/A   Mostly Cloudy
4:53 PM 73.9 °F - 64.9 °F 73% 29.88 in 10.0 mi East 9.2 mph - N/A   Overcast
5:04 PM 73.9 °F - 64.9 °F 73% 29.88 in 10.0 mi East 10.4 mph - N/A Thunderstorm Overcast
5:14 PM 72.0 °F - 66.0 °F 81% 29.89 in 2.0 mi NNE 6.9 mph - 0.00 in Rain , Thunderstorm Thunderstorms and Rain
5:27 PM 69.1 °F - 66.0 °F 90% 29.88 in 2.0 mi NE 12.7 mph - 0.01 in Rain , Thunderstorm Heavy Thunderstorms and Rain
5:33 PM 69.1 °F - 66.9 °F 93% 29.90 in 0.5 mi North 6.9 mph - 0.01 in Fog , Rain , Thunderstorm Heavy Thunderstorms and Rain
5:41 PM 66.9 °F - 64.9 °F 93% 29.89 in 0.2 mi ENE 6.9 mph - 0.02 in Fog , Rain , Thunderstorm Heavy Thunderstorms and Rain
5:50 PM 68.0 °F - 66.2 °F 94% 29.88 in 3.0 mi East 11.5 mph - 0.02 in Rain , Thunderstorm Heavy Thunderstorms and Rain
5:53 PM 68.0 °F - 66.0 °F 93% 29.88 in 3.0 mi Variable 6.9 mph - 0.03 in Rain , Thunderstorm Light Thunderstorms and Rain
6:03 PM 68.0 °F - 66.0 °F 93% 29.88 in 10.0 mi ENE 3.5 mph - 0.00 in Thunderstorm Thunderstorm
6:27 PM 68.0 °F - 66.0 °F 93% 29.90 in 10.0 mi East 3.5 mph - 0.01 in Thunderstorm Overcast
6:46 PM 68.0 °F - 64.9 °F 90% 29.90 in 10.0 mi East 5.8 mph - 0.03 in   Overcast
6:53 PM 68.0 °F - 64.9 °F 90% 29.90 in 10.0 mi NE 3.5 mph - 0.03 in   Overcast
7:53 PM 68.0 °F - 64.9 °F 90% 29.90 in 10.0 mi South 3.5 mph - 0.02 in   Mostly Cloudy
8:26 PM 68.0 °F - 64.9 °F 90% 29.91 in 10.0 mi South 5.8 mph - 0.01 in   Overcast
8:53 PM 66.9 °F - 64.9 °F 93% 29.91 in 9.0 mi NNW 5.8 mph - 0.01 in   Mostly Cloudy
9:08 PM 68.0 °F - 66.0 °F 93% 29.91 in 10.0 mi Calm Calm - N/A   Overcast
9:48 PM 68.0 °F - 66.2 °F 94% 29.91 in 10.0 mi NW 3.5 mph - N/A   Overcast
9:53 PM 68.0 °F - 66.0 °F 93% 29.91 in 10.0 mi Calm Calm - N/A   Overcast
10:25 PM 68.0 °F - 66.0 °F 93% 29.92 in 10.0 mi South 3.5 mph - N/A   Overcast
10:53 PM 68.0 °F - 66.0 °F 93% 29.91 in 8.0 mi Calm Calm - N/A   Overcast
11:04 PM 68.0 °F - 66.0 °F 93% 29.91 in 8.0 mi Calm Calm - N/A   Mostly Cloudy
11:16 PM 68.0 °F - 66.0 °F 93% 29.91 in 7.0 mi Calm Calm - N/A   Mostly Cloudy
11:25 PM 68.0 °F - 66.0 °F 93% 29.91 in 8.0 mi West 4.6 mph - N/A   Mostly Cloudy
11:43 PM 68.0 °F - 63.0 °F 84% 29.90 in 10.0 mi WNW 3.5 mph - N/A   Mostly Cloudy
11:53 PM 66.9 °F - 62.1 °F 84% 29.90 in 10.0 mi WNW 3.5 mph - N/A   Mostly Cloudy